TimeCDT,TemperatureF,Dew PointF,Humidity,Sea Level PressureIn,VisibilityMPH,Wind Direction,Wind SpeedMPH,Gust SpeedMPH,PrecipitationIn,Events,Conditions,WindDirDegrees,DateUTC
12:53 AM,82.9,77.0,82,29.95,10.0,South,13.8,-,N/A,,Scattered Clouds,170,2013-08-07 05:53:00
1:08 AM,84.2,77.0,79,29.95,10.0,South,12.7,-,N/A,,Mostly Cloudy,170,2013-08-07 06:08:00
1:36 AM,82.4,77.0,84,29.95,10.0,South,10.4,-,N/A,,Scattered Clouds,170,2013-08-07 06:36:00
1:46 AM,82.4,77.0,84,29.95,10.0,South,10.4,-,N/A,,Mostly Cloudy,180,2013-08-07 06:46:00
1:53 AM,84.0,77.0,79,29.95,10.0,South,13.8,-,N/A,,Scattered Clouds,180,2013-08-07 06:53:00
2:03 AM,84.2,77.0,79,29.95,10.0,South,12.7,18.4,N/A,,Mostly Cloudy,180,2013-08-07 07:03:00
2:53 AM,82.9,77.0,82,29.94,10.0,South,12.7,-,N/A,,Mostly Cloudy,170,2013-08-07 07:53:00
3:53 AM,84.0,75.9,76,29.94,10.0,South,13.8,-,N/A,,Mostly Cloudy,180,2013-08-07 08:53:00
4:08 AM,84.2,75.2,74,29.94,10.0,South,11.5,19.6,N/A,,Mostly Cloudy,180,2013-08-07 09:08:00
4:53 AM,82.9,77.0,82,29.93,10.0,South,13.8,-,N/A,,Mostly Cloudy,180,2013-08-07 09:53:00
5:53 AM,82.9,77.0,82,29.92,10.0,SSW,17.3,25.3,N/A,,Mostly Cloudy,200,2013-08-07 10:53:00
6:53 AM,82.9,77.0,82,29.92,10.0,SSW,15.0,24.2,N/A,,Mostly Cloudy,200,2013-08-07 11:53:00
7:38 AM,82.4,75.2,79,29.91,9.0,SSW,12.7,21.9,N/A,,Scattered Clouds,200,2013-08-07 12:38:00
7:53 AM,82.9,77.0,82,29.91,9.0,SSW,13.8,20.7,N/A,,Scattered Clouds,200,2013-08-07 12:53:00
9:23 AM,86.0,77.0,74,29.93,9.0,South,13.8,-,N/A,,Mostly Cloudy,190,2013-08-07 14:23:00
9:53 AM,86.0,75.9,72,29.94,9.0,SSW,13.8,-,N/A,,Mostly Cloudy,210,2013-08-07 14:53:00
10:07 AM,87.8,75.2,66,29.95,9.0,SSW,15.0,21.9,N/A,,Scattered Clouds,200,2013-08-07 15:07:00
10:53 AM,88.0,75.9,67,29.94,9.0,South,16.1,23.0,N/A,,Partly Cloudy,190,2013-08-07 15:53:00
11:53 AM,89.1,75.9,65,29.95,9.0,South,15.0,-,N/A,,Clear,190,2013-08-07 16:53:00
12:53 PM,90.0,75.9,63,29.95,9.0,South,12.7,-,N/A,,Clear,190,2013-08-07 17:53:00
1:53 PM,91.0,73.9,57,29.94,9.0,South,13.8,21.9,N/A,,Clear,190,2013-08-07 18:53:00
2:53 PM,90.0,75.9,63,29.92,9.0,South,15.0,21.9,N/A,,Clear,180,2013-08-07 19:53:00
3:53 PM,90.0,75.0,61,29.90,9.0,South,18.4,-,N/A,,Clear,170,2013-08-07 20:53:00
5:53 PM,89.1,75.0,63,29.86,8.0,South,17.3,-,N/A,,Clear,170,2013-08-07 22:53:00
7:53 PM,84.9,75.9,74,29.87,8.0,SSE,13.8,-,N/A,,Clear,160,2013-08-08 00:53:00
8:53 PM,84.0,75.9,76,29.88,9.0,SSE,16.1,20.7,N/A,,Clear,160,2013-08-08 01:53:00
9:53 PM,84.0,75.9,76,29.90,9.0,SSE,16.1,21.9,N/A,,Clear,150,2013-08-08 02:53:00
10:53 PM,84.0,75.9,76,29.91,9.0,SSE,16.1,-,N/A,,Partly Cloudy,160,2013-08-08 03:53:00
11:53 PM,82.9,75.9,79,29.91,9.0,South,16.1,-,N/A,,Partly Cloudy,170,2013-08-08 04:53:00